Lexington Weather

Lexington, Massachusetts, USA

59°F
10/23/2020 6:01pm 
  • Lexington Conditions: Overcast
  • Temperature: 58.8°F / 14.9°CColder 2.4°F than last hour.
  • Dew Point: 53.1°FDecreased 1.8°Fsince last hour.
  • Relative Humidity: 81%Increased 1.0% since last hour.
  • Wind: Wind from WSW WSW Calm, 10-min avg: 1 mph, gust: 6 mph
  • Barometer: 30.08 in Steady
  • Visibility: 10 miles
  • Rain Today: 0.00 in
  •   

Regional Weather Roundup
for Boston / Norton, MA

        
000
ASUS41 KBOX 170305
RWRBOX

REGIONAL WEATHER ROUNDUP
NATIONAL WEATHER SERVICE BOSTON/NORTON MA
1100 PM EDT FRI OCT 16 2020

NOTE:  "FAIR" INDICATES FEW OR NO CLOUDS BELOW 12,000 FEET WITH NO 
SIGNIFICANT WEATHER AND/OR OBSTRUCTIONS TO VISIBILITY.

MAZALL-170400-
EASTERN MASSACHUSETTS
  
CITY           SKY/WX    TMP DP  RH WIND       PRES   REMARKS
BOSTON         RAIN      52  50  93 NW14      30.09S FOG              
BEVERLY        RAIN      53  51  93 NW8       30.09R FOG              
LAWRENCE       RAIN      52  50  93 NW3       30.12R FOG              
BEDFORD        LGT RAIN  51  50  96 NW10      30.08F                  
BLUE HILL        N/A     50  50 100 NW10      30.07R                  
NORWOOD        LGT RAIN  54  50  86 NW8       30.09S                  
MARSHFIELD     CLOUDY    57  54  88 VRB5      30.06F                  
PLYMOUTH       CLOUDY    55  51  86 NE9       30.05F                  
TAUNTON        LGT RAIN  55  52  89 N3        30.06F                  
NEW BEDFORD    LGT RAIN  56  53  90 N6        30.04F                  
$$

MAZALL-170400-
CAPE COD AND THE ISLANDS
  
CITY           SKY/WX    TMP DP  RH WIND       PRES   REMARKS
FALMOUTH       CLOUDY    57  54  88 NE16      30.04F                  
HYANNIS        CLOUDY    58  54  86 N9        30.03F                  
CHATHAM        PTCLDY    58  54  86 NE8G17    30.06F                  
PROVINCETOWN   CLOUDY    57  55  93 NE7       30.07F                  
NANTUCKET      CLOUDY   N/A N/A N/A NE9       30.04F                  
MARTHAS VNYRD  CLOUDY    58  54  86 NE13      30.04F                  
$$
 
MAZALL-170400-
CENTRAL AND WESTERN MASSACHUSETTS
  
CITY           SKY/WX    TMP DP  RH WIND       PRES   REMARKS
WORCESTER      CLOUDY    49  45  86 N10       30.09F                  
FITCHBURG      CLOUDY    50  48  93 N6        30.11S                  
ORANGE         LGT RAIN  49  47  93 W6        30.14F                  
SPRINGFIELD    LGT RAIN  49  46  91 N9        30.11F                  
WESTFIELD      RAIN      49  48  97 N5        30.12S                  
NORTH ADAMS    CLOUDY    47  44  90 CALM      30.15F                  
PITTSFIELD     CLOUDY    45  40  82 NW8       30.12F                  
$$
 
RIZALL-170400-
RHODE ISLAND
  
CITY           SKY/WX    TMP DP  RH WIND       PRES   REMARKS
PROVIDENCE     RAIN      53  52  96 N8        30.08S FOG              
NEWPORT        HVY RAIN  53  52  96 N12       30.05F FOG              
BLOCK ISLAND   LGT RAIN  53  51  93 N9        30.07R FOG              
SMITHFIELD     LGT RAIN  50  50 100 N10         N/A                   
WESTERLY       RAIN      52  49  89 N9G17     30.08F FOG              
$$
 
CTZALL-170400-
CONNECTICUT
  
CITY           SKY/WX    TMP DP  RH WIND       PRES   REMARKS
BRADLEY INTL   LGT RAIN  49  47  93 N7        30.12S                  
HARTFORD       LGT RAIN  51  47  86 N8        30.12R FOG              
BRIDGEPORT     HVY RAIN  50  47  89 N8        30.11S FOG              
DANBURY        LGT RAIN  46  43  89 N9        30.13S                  
GROTON         RAIN      52  50  93 N7        30.09R FOG              
NEW HAVEN      LGT RAIN  52  50  93 N10       30.12R FOG              
CHESTER        NOT AVBL                                               
MERIDEN        LGT RAIN  50  46  86 NW9       30.13R                  
WILLIMANTIC    LGT RAIN  51  49  92 NW3       30.11R                  
OXFORD         LGT RAIN  47  46  97 N8        30.14R                  
$$

MEZ002-015-021-024-NHZ003-005-008-011-012-014-VTZ005-008-170400-
NORTHERN NEW ENGLAND
  
CITY           SKY/WX    TMP DP  RH WIND       PRES   REMARKS
PORTLAND ME    CLOUDY    53  53 100 NW7       30.09S                  
BANGOR ME      LGT RAIN  53  51  93 N8        30.12F                  
CONCORD NH     LGT RAIN  48  45  89 NW10      30.11S                  
MANCHESTER NH  LGT RAIN  50  46  86 NW7       30.10S                  
NASHUA NH      LGT RAIN  50  50 100 NW6       30.12R                  
PORTSMOUTH NH  LGT RAIN  53  51  96 NW6       30.07                   
JAFFREY NH     LGT RAIN  46  43  89 NW6       30.12S                  
KEENE NH       LGT RAIN  47  46  97 N7        30.14F                  
BURLINGTON VT  CLOUDY    47  43  86 CALM      30.19S                  
MT. WASHINGTON LGTSLEET  34  34 100 W22         N/A  VSB 1/8 WCI  22  
$$

NYZ052-076-170400-
EASTERN NEW YORK
  
CITY           SKY/WX    TMP DP  RH WIND       PRES   REMARKS
ALBANY         CLOUDY    44  44 100 W7        30.18F                  
NEW YORK CITY  CLOUDY    51  45  79 N16       30.11F                  
$$
 
ANZALL-170400-
MARINE OBSERVATIONS
  
STATION/POSITION TIME  TEMP    WIND        PRES    VSBY  WAVE
                       AIR SEA DIR/SP/G                  HT/PER
                 (UTC) (F)     (DEG/KT/KT) (MB)    (MI)  (FT/S)
BOSTON BUOY      0250   55 57  350/ 10/ 12 1017.1F         2/ 9
BUZZARDS BAY     0200           30/ 18/ 20 1018.4F
NANTUCKET SOUND  0250      62   30/ 14/ 16   N/A           2/ 3
MASS BAY-STELLWA 0204   55 58  350/ 10/ 10 1017.8F  1 7/8  3/ 8
ISLE OF SHOALS   0200   53     310/  9/ 10 1018.5F
S OF BLOCK IS    0226      64                N/A           4/ 5
$$

......................KEY.........................
  SKY/WX - SKY CONDITION/PRESENT WEATHER
  TMP    - TEMPERATURE IN FAHRENHEIT
  DWPT   - DEWPOINT IN FAHRENHEIT
  RH     - RELATIVE HUMIDITY IN PERCENT
  WIND   - DIRECTION AND SPEED IN MPH
  PRES   - MEAN SEA LEVEL PRESSURE IN INCHES OF HG
  WCI    - WIND CHILL INDEX
  VSB    - VISIBILITY IN MILES
  HX     - HEAT INDEX
  TC     - TEMPERATURE IN CELSIUS
  VRB    - VARIABLE WIND DIRECTION
  N/A    - NOT AVAILABLE
  
      

Other recent Regional Weather Roundups

Fri Oct 23, 5:05pm

Fri Oct 23, 4:04pm

Fri Oct 23, 3:04pm

Fri Oct 23, 2:05pm

Fri Oct 23, 1:04pm

Fri Oct 23, 12:04pm

Fri Oct 23, 11:04am

Fri Oct 23, 10:04am

Fri Oct 23, 9:04am

Fri Oct 23, 8:04am

Fri Oct 23, 7:04am

Fri Oct 23, 6:04am

Fri Oct 23, 5:04am

Fri Oct 23, 4:04am

Fri Oct 23, 3:04am

Fri Oct 23, 2:04am

Fri Oct 23, 1:04am

Fri Oct 23, 12:04am

Thu Oct 22, 11:04pm

Thu Oct 22, 10:04pm

Thu Oct 22, 9:05pm

Thu Oct 22, 8:04pm

Thu Oct 22, 7:05pm

Thu Oct 22, 6:04pm

Thu Oct 22, 5:04pm

Thu Oct 22, 4:05pm

Thu Oct 22, 3:04pm

Thu Oct 22, 2:05pm

Thu Oct 22, 1:04pm

Thu Oct 22, 12:04pm

Thu Oct 22, 11:04am

Thu Oct 22, 10:05am

Thu Oct 22, 9:04am

Thu Oct 22, 8:05am

Thu Oct 22, 7:04am

Thu Oct 22, 6:04am

Thu Oct 22, 5:04am

Thu Oct 22, 4:04am

Thu Oct 22, 3:04am

Thu Oct 22, 2:04am

Thu Oct 22, 1:04am

Thu Oct 22, 12:04am

Wed Oct 21, 11:05pm

Wed Oct 21, 10:04pm

Wed Oct 21, 9:04pm

Wed Oct 21, 8:04pm

Wed Oct 21, 7:04pm

Wed Oct 21, 6:04pm

Wed Oct 21, 5:05pm

Wed Oct 21, 4:04pm

Wed Oct 21, 3:04pm

Wed Oct 21, 2:05pm

Wed Oct 21, 1:04pm

Wed Oct 21, 12:04pm

Wed Oct 21, 11:04am

Wed Oct 21, 10:04am

Wed Oct 21, 9:04am

Wed Oct 21, 8:04am

Wed Oct 21, 7:04am

Wed Oct 21, 6:04am

Wed Oct 21, 5:04am

Wed Oct 21, 4:04am

Wed Oct 21, 3:04am

Wed Oct 21, 2:04am

Wed Oct 21, 1:04am

Wed Oct 21, 12:04am

Tue Oct 20, 11:05pm

Tue Oct 20, 10:04pm

Tue Oct 20, 9:04pm

Tue Oct 20, 8:05pm

Tue Oct 20, 7:04pm

Tue Oct 20, 6:04pm

Tue Oct 20, 5:05pm

Tue Oct 20, 4:04pm

Tue Oct 20, 3:05pm

Tue Oct 20, 2:07pm

Tue Oct 20, 1:04pm

Tue Oct 20, 12:04pm

Tue Oct 20, 11:04am

Tue Oct 20, 10:05am

Tue Oct 20, 9:04am

Tue Oct 20, 8:04am

Tue Oct 20, 7:04am

Tue Oct 20, 6:04am

Tue Oct 20, 5:04am

Tue Oct 20, 4:04am

Tue Oct 20, 3:04am

Tue Oct 20, 2:04am

Tue Oct 20, 1:04am

Tue Oct 20, 12:04am

Mon Oct 19, 11:04pm

Mon Oct 19, 10:04pm

Mon Oct 19, 9:04pm

Mon Oct 19, 8:04pm

Mon Oct 19, 7:04pm

Mon Oct 19, 6:04pm

Mon Oct 19, 5:04pm

Mon Oct 19, 4:04pm

Mon Oct 19, 3:04pm

Mon Oct 19, 2:04pm

Mon Oct 19, 1:05pm

Mon Oct 19, 12:04pm

Mon Oct 19, 11:04am

Mon Oct 19, 10:04am

Mon Oct 19, 9:04am

Mon Oct 19, 8:04am

Mon Oct 19, 7:04am

Mon Oct 19, 6:04am

Mon Oct 19, 5:04am

Mon Oct 19, 4:04am

Mon Oct 19, 3:04am

Mon Oct 19, 2:04am

Mon Oct 19, 1:04am

Mon Oct 19, 12:05am

Sun Oct 18, 11:04pm

Sun Oct 18, 10:04pm

Sun Oct 18, 9:04pm

Sun Oct 18, 8:04pm

Sun Oct 18, 7:05pm

Sun Oct 18, 6:04pm

Sun Oct 18, 5:05pm

Sun Oct 18, 4:05pm

Sun Oct 18, 3:04pm

Sun Oct 18, 2:05pm

Sun Oct 18, 1:04pm

Sun Oct 18, 12:04pm

Sun Oct 18, 11:04am

Sun Oct 18, 10:04am

Sun Oct 18, 9:04am

Sun Oct 18, 8:04am

Sun Oct 18, 7:04am

Sun Oct 18, 6:04am

Sun Oct 18, 5:04am

Sun Oct 18, 4:04am

Sun Oct 18, 3:04am

Sun Oct 18, 2:04am

Sun Oct 18, 1:04am

Sun Oct 18, 12:04am

Sat Oct 17, 11:05pm

Sat Oct 17, 10:04pm

Sat Oct 17, 9:04pm

Sat Oct 17, 8:04pm

Sat Oct 17, 7:04pm

Sat Oct 17, 6:04pm

Sat Oct 17, 5:05pm

Sat Oct 17, 4:04pm

Sat Oct 17, 3:04pm

Sat Oct 17, 2:05pm

Sat Oct 17, 1:05pm

Sat Oct 17, 12:04pm

Sat Oct 17, 11:05am

Sat Oct 17, 10:04am

Sat Oct 17, 9:04am

Sat Oct 17, 8:04am

Sat Oct 17, 7:04am

Sat Oct 17, 6:04am

Sat Oct 17, 5:04am

Sat Oct 17, 4:04am

Sat Oct 17, 3:04am

Sat Oct 17, 2:04am

Sat Oct 17, 1:05am

Sat Oct 17, 12:04am

Fri Oct 16, 10:04pm

Fri Oct 16, 9:05pm

Fri Oct 16, 8:04pm

Fri Oct 16, 7:05pm

Fri Oct 16, 6:04pm

Meta data:

ID: c5b83c00-0a34-4fce-8cdb-c5d200b4c127
Link: https://api.weather.gov/products/c5b83c00-0a34-4fce-8cdb-c5d200b4c127